User: anonymous   Login
Location: Monrovia
(34.7865°N, 86.7139°W)
Time: 22:34:43
(UTC+00:00)
Language:

OAO 2 Rocket - Orbit

View from above orbital plane
View from above orbital plane
View from above satellite
View from above satellite

Ground track
Ground track

The orbit data is extracted from the following two-line orbital elements,

1  3598U 68110B   20263.53949253 +.00000056 +00000-0 +17340-4 0  9994
2  3598 034.9934 094.4798 0049093 165.9150 194.2922 14.54483090718960
Epoch (UTC): 19 September 2020 12:56:52
Eccentricity: 0.0049093
inclination: 34.9934°
perigee height: 676 km
apogee height: 746 km
right ascension of ascending node: 94.4798°
argument of perigee: 165.9150°
revolutions per day: 14.54483090
mean anomaly at epoch: 194.2922°
orbit number at epoch: 71896

The dashed part of the orbit path shows where the satellite is in the earth's shadow,  

DLR